COSMOS 2251 DEB, 36008

Orbit data source: Space-Track

COSMOS 2251 DEB, 36008 is space debris in LEO originally from a launch on Wed, 16 Jun 1993 UTC launched from the Plesetsk Missile And Space Complex (PKMTR). The debris from Iridium 33, an American commercial communications satellite, has been tracked extensively since its accidental collision with the defunct Russian satellite Cosmos 2251 in 2009. This event, occurring at high speed in low Earth orbit (LEO), generated thousands of pieces of space debris, significantly increasing the risk of further collisions. The Iridium 33 debris cloud has impacted space traffic management and orbital debris mitigation strategies, making it a subject of ongoing study in space situational awareness.

Loading next visibility...
Identifier
36008, 1993-036AXA
Orbit
LEO
Country
Flag of CISCIS
Related business
Manufacturer
Unknown
Mission
Spacecraft
Bus & Motor
Unknown
Mass
Unknown
Launch date (UTC)
1993-06-16 (33 years ago)
Launch vehicle
Unknown
Launch site
Plesetsk Missile And Space Complex (PKMTR)
Object type
Payload
Rocket body
Debris
Shape & HBR
Unknown shape, 1.1 m
Radar Cross Section
Small (<0.1 m²)

Expand to show TLE details & history
Last TLE update: 4 weeks ago

TLE from 4 weeks ago
0 COSMOS 2251 DEB
1 36008U 93036AXA 26212.33782978  .00006162  00000-0  21654-2 0  9993
2 36008  74.0023 211.7550 0166559 301.9192  56.5847 14.27651045639124
Epoch: 2026-07-31T08:06Z
TLE epoch observation values (Epoch: 2026-07-31T08:06:28.492Z)
Latitude
-0.00003°
Longitude
141.17084°
Altitude
737.752 km
Speed
7.52 km/s
True Right ascension
14h 07m 01s
True Declination
0° 00' 00"
Sunlit
Object was in daylight at epoch
Visualization orbit readout
Latitude
Unknown
Longitude
Unknown
Altitude
Unknown
Speed
Unknown
Apparent Right ascension
Unknown
Apparent Declination
Unknown
Sunlit
N/A
Visualization observer readout
Local Sidereal Time
11:07:47
Azimuth
Unknown
Elevation
Unknown
Doppler factor
Unknown
Orbital elements
Apogee altitude
916.741 km
Perigee altitude
677.716 km
Semi-major axis
7,175.365 km
Eccentricity
0.01666
Inclination
74.0023°
RAAN
211.755°
Arg. of periapsis
301.9192°
True anomaly
58.19609°
Mean anomaly
56.5847°
Eccentric anomaly
57.38856°
Mean motion
3.5709 °/min
Orbital period
100.82 mins
BSTAR
0.0021654

Documentation

Showing up to 5 results
|